WA5KWK Weather Reports


Display with metric or nautical units.
time (UTC)temp
F
wind
direction
speed
MPH
gust
MPH
rain 1hr
in
rain 24hr
in
rain mn
in
humidity
%
barometer
mb
20260902223004 73 265 3.0 10.0 0.00 0.00 0.00 44 1017.0
20260902222506 73 160 5.0 10.0 0.00 0.00 0.00 44 1017.0
20260902222005 72 198 3.0 8.0 0.00 0.00 0.00 43 1017.0
20260902221505 72 195 3.0 7.0 0.00 0.00 0.00 44 1017.3
20260902221004 71 166 3.0 10.0 0.00 0.00 0.00 44 1017.3
20260902215005 71 136 3.0 12.0 0.00 0.00 0.00 42 1017.3
20260902214504 72 200 6.0 13.0 0.00 0.00 0.00 42 1017.4
20260902213504 72 160 5.0 10.0 0.00 0.00 0.00 43 1017.6
20260902213005 72 163 6.0 9.0 0.00 0.00 0.00 44 1017.4
20260902212504 72 210 8.0 15.0 0.00 0.00 0.00 43 1017.6
20260902212005 72 221 9.0 16.0 0.00 0.00 0.00 43 1017.1
20260902211504 71 114 5.0 10.0 0.00 0.00 0.00 40 1017.3
20260902211004 71 151 6.0 12.0 0.00 0.00 0.00 39 1017.3
20260902205504 71 194 10.0 17.0 0.00 0.00 0.00 42 1017.6
20260902204505 71 260 4.0 12.0 0.00 0.00 0.00 44 1017.6
20260902204005 72 223 7.0 10.0 0.00 0.00 0.00 44 1017.7
20260902203505 72 97 4.0 9.0 0.00 0.00 0.00 43 1017.8
20260902202504 70 175 6.0 10.0 0.00 0.00 0.00 46 1017.7
20260902202004 70 200 9.0 14.0 0.00 0.00 0.00 45 1017.7
20260902201504 69 201 6.0 12.0 0.00 0.00 0.00 45 1017.7
20260902201004 69 220 8.0 13.0 0.00 0.00 0.00 46 1017.9
20260902200505 69 188 4.0 12.0 0.00 0.00 0.00 46 1017.9
20260902200005 70 178 5.0 12.0 0.00 0.00 0.00 45 1017.8
20260902195504 70 166 4.0 10.0 0.00 0.00 0.00 45 1018.0
20260902195004 69 158 6.0 13.0 0.00 0.00 0.00 45 1018.0
20260902194005 69 169 7.0 12.0 0.00 0.00 0.00 47 1018.2
20260902193504 69 189 6.0 13.0 0.00 0.00 0.00 47 1018.1
20260902193004 69 170 5.0 12.0 0.00 0.00 0.00 48 1018.0
20260902192005 67 201 6.0 12.0 0.00 0.00 0.00 49 1018.2
20260902190005 67 167 6.0 12.0 0.00 0.00 0.00 50 1018.2
20260902185504 67 227 5.0 10.0 0.00 0.00 0.00 52 1018.1
20260902185005 66 218 4.0 9.0 0.00 0.00 0.00 52 1018.3
20260902184504 66 171 9.0 15.0 0.00 0.00 0.00 52 1018.2
20260902184004 65 208 5.0 12.0 0.00 0.00 0.00 53 1018.1
20260902183504 66 201 6.0 12.0 0.00 0.00 0.00 53 1018.2
20260902183005 65 183 6.0 13.0 0.00 0.00 0.00 53 1018.2
20260902182505 66 203 6.0 12.0 0.00 0.00 0.00 53 1018.3
20260902182004 66 230 6.0 13.0 0.00 0.00 0.00 54 1018.2
20260902181504 65 204 5.0 8.0 0.00 0.00 0.00 54 1018.2
20260902180505 64 250 6.0 12.0 0.00 0.00 0.00 55 1018.1
20260902175505 64 224 6.0 10.0 0.00 0.00 0.00 55 1018.1
20260902175005 64 230 5.0 9.0 0.00 0.00 0.00 56 1018.1
20260902174504 64 170 4.0 9.0 0.00 0.00 0.00 58 1018.0
20260902174005 63 195 4.0 9.0 0.00 0.00 0.00 59 1018.0
20260902173504 63 191 4.0 7.0 0.00 0.00 0.00 58 1018.0
20260902173005 63 162 3.0 8.0 0.00 0.00 0.00 58 1018.0
20260902172504 63 214 5.0 6.0 0.00 0.00 0.00 58 1018.0
20260902172005 63 206 4.0 9.0 0.00 0.00 0.00 57 1017.9
20260902171005 62 200 3.0 5.0 0.00 0.00 0.00 60 1017.9
20260902170504 62 216 3.0 7.0 0.00 0.00 0.00 61 1017.9
20260902170004 61 302 1.0 3.0 0.00 0.00 0.00 61 1018.0
20260902165505 62 300 2.0 3.0 0.00 0.00 0.00 61 1018.0
20260902165004 61 250 3.0 6.0 0.00 0.00 0.00 61 1017.8
20260902164504 61 205 2.0 6.0 0.00 0.00 0.00 61 1017.9
20260902164005 61 207 3.0 6.0 0.00 0.00 0.00 61 1017.8
20260902163504 61 222 3.0 6.0 0.00 0.00 0.00 61 1017.8
20260902162504 61 213 2.0 5.0 0.00 0.00 0.00 61 1017.8
20260902162005 61 218 3.0 6.0 0.00 0.00 0.00 62 1017.7
20260902161504 61 175 3.0 6.0 0.00 0.00 0.00 61 1017.6
20260902161005 61 175 2.0 5.0 0.00 0.00 0.00 62 1017.8
20260902160007 60 174 1.0 5.0 0.00 0.00 0.00 64 1017.5
20260902155504 59 202 2.0 3.0 0.00 0.00 0.00 66 1017.6
20260902154505 58 350 0.0 0.0 0.00 0.00 0.00 68 1017.6
20260902154004 58 350 0.0 0.0 0.00 0.00 0.00 70 1017.6
20260902153504 57 350 0.0 0.0 0.00 0.00 0.00 70 1017.5
20260902152504 57 350 0.0 0.0 0.00 0.00 0.00 70 1017.5
20260902152005 57 350 0.0 0.0 0.00 0.00 0.00 70 1017.5
20260902151504 57 350 0.0 0.0 0.00 0.00 0.00 71 1017.5
20260902150007 55 350 0.0 0.0 0.00 0.00 0.00 73 1017.5
20260902145504 55 350 0.0 0.0 0.00 0.00 0.00 73 1017.6
20260902145004 54 350 0.0 0.0 0.00 0.00 0.00 73 1017.6
20260902144504 54 350 0.0 1.0 0.00 0.00 0.00 73 1017.5
20260902144005 54 350 1.0 2.0 0.00 0.00 0.00 74 1017.4
20260902143504 53 350 0.0 0.0 0.00 0.00 0.00 75 1017.4
20260902143004 53 350 0.0 0.0 0.00 0.00 0.00 75 1017.4
20260902142505 53 350 0.0 1.0 0.00 0.00 0.00 76 1017.2
20260902142004 52 350 1.0 2.0 0.00 0.00 0.00 76 1017.2
20260902141505 52 350 2.0 2.0 0.00 0.00 0.00 76 1017.1
20260902141005 52 350 1.0 2.0 0.00 0.00 0.00 76 1016.9
20260902140504 52 350 0.0 2.0 0.00 0.00 0.00 77 1016.9
20260902140004 52 350 0.0 0.0 0.00 0.00 0.00 77 1016.9
20260902135505 52 350 0.0 0.0 0.00 0.00 0.00 77 1016.8
20260902135004 52 350 0.0 0.0 0.00 0.00 0.00 77 1016.9
20260902134504 52 350 0.0 0.0 0.00 0.00 0.00 77 1016.8
20260902133505 52 350 0.0 0.0 0.00 0.00 0.00 77 1016.8
20260902133005 52 350 0.0 0.0 0.00 0.00 0.00 77 1016.6
20260902132504 52 350 0.0 0.0 0.00 0.00 0.00 77 1016.4
20260902132004 52 350 0.0 0.0 0.00 0.00 0.00 77 1016.4
20260902131504 52 350 0.0 0.0 0.00 0.00 0.00 77 1016.3
20260902131004 52 350 0.0 0.0 0.00 0.00 0.00 77 1016.3
20260902130505 52 350 0.0 0.0 0.00 0.00 0.00 77 1016.3
20260902130004 52 350 0.0 0.0 0.00 0.00 0.00 77 1016.4
20260902125504 52 350 0.0 0.0 0.00 0.00 0.00 77 1016.4
20260902125005 52 350 0.0 0.0 0.00 0.00 0.00 77 1016.2
20260902124504 52 350 0.0 0.0 0.00 0.00 0.00 78 1016.3
20260902124004 52 350 0.0 0.0 0.00 0.00 0.00 78 1016.4
20260902123504 52 350 0.0 0.0 0.00 0.00 0.00 78 1016.2
20260902123004 52 350 0.0 0.0 0.00 0.00 0.00 78 1016.2
20260902122504 52 350 0.0 0.0 0.00 0.00 0.00 78 1016.2
20260902122005 52 350 0.0 0.0 0.00 0.00 0.00 78 1016.2
20260902121504 52 350 0.0 0.0 0.00 0.00 0.00 78 1016.1
20260902121004 52 350 0.0 0.0 0.00 0.00 0.00 78 1016.3
20260902120505 52 350 0.0 0.0 0.00 0.00 0.00 79 1016.4
20260902120004 51 350 0.0 0.0 0.00 0.00 0.00 79 1016.2
20260902115504 51 350 0.0 0.0 0.00 0.00 0.00 79 1016.2
20260902115005 51 350 0.0 0.0 0.00 0.00 0.00 79 1016.2
20260902114504 51 350 0.0 0.0 0.00 0.00 0.00 79 1016.4
20260902113004 51 350 0.0 0.0 0.00 0.00 0.00 79 1016.4
20260902112505 51 350 0.0 0.0 0.00 0.00 0.00 79 1016.5
20260902112005 52 350 0.0 0.0 0.00 0.00 0.00 79 1016.5
20260902111005 52 350 0.0 0.0 0.00 0.00 0.00 79 1016.4
20260902110504 52 350 0.0 0.0 0.00 0.00 0.00 79 1016.4
20260902110007 52 350 0.0 0.0 0.00 0.00 0.00 79 1016.7
20260902105504 52 350 0.0 0.0 0.00 0.00 0.00 78 1016.7
20260902105005 52 350 0.0 0.0 0.00 0.00 0.00 78 1016.6
20260902104504 52 350 0.0 0.0 0.00 0.00 0.00 79 1016.7
20260902103504 52 350 0.0 0.0 0.00 0.00 0.00 79 1016.6
20260902103004 52 350 0.0 1.0 0.00 0.00 0.00 79 1016.6
20260902102505 51 350 1.0 2.0 0.00 0.00 0.00 79 1016.7
20260902102006 51 350 1.0 3.0 0.00 0.00 0.00 79 1016.7
20260902100004 51 350 2.0 3.0 0.00 0.00 0.00 79 1016.6
20260902095505 51 350 1.0 2.0 0.00 0.00 0.00 80 1016.6
20260902095005 51 350 1.0 2.0 0.00 0.00 0.00 80 1016.5
20260902094504 51 350 1.0 2.0 0.00 0.00 0.00 81 1016.5
20260902094005 51 350 1.0 2.0 0.00 0.00 0.00 82 1016.7
20260902093504 50 350 1.0 2.0 0.00 0.00 0.00 82 1016.7
20260902093004 50 350 1.0 3.0 0.00 0.00 0.00 82 1016.7
20260902092504 50 350 0.0 0.0 0.00 0.00 0.00 82 1016.6
20260902091504 50 350 0.0 0.0 0.00 0.00 0.00 83 1016.6
20260902091005 50 350 0.0 0.0 0.00 0.00 0.00 84 1016.7
20260902090505 50 350 0.0 0.0 0.00 0.00 0.00 84 1016.5
20260902090005 50 350 0.0 0.0 0.00 0.00 0.00 84 1016.6
20260902085005 50 350 0.0 2.0 0.00 0.00 0.00 85 1016.6
20260902084504 50 350 1.0 2.0 0.00 0.00 0.00 85 1016.6
20260902084004 49 350 1.0 2.0 0.00 0.00 0.00 85 1016.7
20260902083504 49 350 1.0 2.0 0.00 0.00 0.00 85 1016.8
20260902083006 49 350 1.0 3.0 0.00 0.00 0.00 85 1016.8
20260902082504 49 350 2.0 2.0 0.00 0.00 0.00 85 1016.8
20260902082004 50 350 2.0 3.0 0.00 0.00 0.00 84 1016.9
20260902081504 50 350 1.0 2.0 0.00 0.00 0.00 84 1016.8
20260902081004 50 350 1.0 2.0 0.00 0.00 0.00 84 1016.9
20260902080504 50 350 0.0 0.0 0.00 0.00 0.00 84 1016.8
20260902080004 50 350 1.0 2.0 0.00 0.00 0.00 84 1016.8
20260902075004 50 350 1.0 2.0 0.00 0.00 0.00 84 1016.8
20260902074504 50 350 0.0 0.0 0.00 0.00 0.00 85 1016.7
20260902073504 51 350 0.0 0.0 0.00 0.00 0.00 83 1016.8
20260902073004 51 350 0.0 0.0 0.00 0.00 0.00 83 1016.9
20260902072504 51 350 0.0 0.0 0.00 0.00 0.00 83 1016.7
20260902072005 51 350 0.0 0.0 0.00 0.00 0.00 83 1016.5
20260902071503 51 350 0.0 0.0 0.00 0.00 0.00 83 1016.6
20260902071006 51 350 0.0 0.0 0.00 0.00 0.00 83 1016.4
20260902070505 51 350 0.0 0.0 0.00 0.00 0.00 83 1016.5
20260902065504 51 350 0.0 0.0 0.00 0.00 0.00 83 1016.5
20260902065004 51 350 0.0 0.0 0.00 0.00 0.00 83 1016.6
20260902064504 51 350 0.0 0.0 0.00 0.00 0.00 83 1016.7
20260902064004 51 350 0.0 0.0 0.00 0.00 0.00 83 1016.7
20260902063504 51 350 0.0 0.0 0.00 0.00 0.00 83 1016.7
20260902063005 51 350 0.0 0.0 0.00 0.00 0.00 83 1016.9
20260902062504 51 350 0.0 1.0 0.00 0.00 0.00 82 1016.9
20260902062004 51 350 0.0 0.0 0.00 0.00 0.00 82 1017.1
20260902061504 51 350 0.0 0.0 0.00 0.00 0.00 81 1017.0
20260902061004 51 350 0.0 0.0 0.00 0.00 0.00 80 1017.2
20260902060504 52 350 0.0 0.0 0.00 0.00 0.00 81 1017.2
20260902060004 52 350 0.0 1.0 0.00 0.00 0.00 81 1017.2
20260902055504 52 350 0.0 1.0 0.00 0.00 0.00 80 1017.3
20260902055004 52 350 0.0 1.0 0.00 0.00 0.00 79 1017.3
20260902054503 52 350 0.0 1.0 0.00 0.00 0.00 79 1017.4
20260902054004 53 350 0.0 0.0 0.00 0.00 0.00 79 1017.4
20260902053504 53 350 0.0 1.0 0.00 0.00 0.00 79 1017.6
20260902052504 53 350 0.0 1.0 0.00 0.00 0.00 78 1017.6
20260902052004 53 350 0.0 1.0 0.00 0.00 0.00 78 1017.6
20260902051504 53 350 0.0 0.0 0.00 0.00 0.00 77 1017.6
20260902051004 53 350 0.0 0.0 0.00 0.00 0.00 77 1017.4
20260902050504 54 350 0.0 1.0 0.00 0.00 0.00 77 1017.5
20260902045504 54 350 1.0 2.0 0.00 0.00 0.00 77 1017.4
20260902045004 54 354 0.0 2.0 0.00 0.00 0.00 76 1017.4
20260902044504 54 354 1.0 3.0 0.00 0.00 0.00 76 1017.4
20260902043504 55 278 0.0 3.0 0.00 0.00 0.00 75 1017.2
20260902043004 55 278 0.0 2.0 0.00 0.00 0.00 75 1017.3
20260902042503 55 278 1.0 3.0 0.00 0.00 0.00 74 1017.1
20260902042004 55 278 1.0 3.0 0.00 0.00 0.00 73 1017.1
20260902041505 55 277 2.0 3.0 0.00 0.00 0.00 73 1017.0
20260902041004 56 298 2.0 3.0 0.00 0.00 0.00 72 1016.9
20260902040504 56 273 1.0 3.0 0.00 0.00 0.00 71 1016.8
20260902040004 56 277 2.0 3.0 0.00 0.00 0.00 70 1016.8
20260902035504 57 280 2.0 3.0 0.00 0.00 0.00 70 1016.7
20260902035004 57 268 1.0 6.0 0.00 0.00 0.00 68 1016.5
20260902034504 57 302 2.0 3.0 0.00 0.00 0.00 68 1016.5
20260902034004 58 259 2.0 6.0 0.00 0.00 0.00 67 1016.4
20260902033504 58 284 4.0 8.0 0.00 0.00 0.00 65 1016.1
20260902033004 59 275 1.0 3.0 0.00 0.00 0.00 64 1016.0
20260902032504 59 335 0.0 3.0 0.00 0.00 0.00 63 1015.9
20260902032004 59 336 2.0 3.0 0.00 0.00 0.00 63 1015.9
20260902031504 60 336 2.0 5.0 0.00 0.00 0.00 62 1015.8
20260902030004 60 296 2.0 3.0 0.00 0.00 0.00 60 1015.7
20260902025504 60 283 2.0 3.0 0.00 0.00 0.00 59 1015.7
20260902025004 61 281 1.0 3.0 0.00 0.00 0.00 59 1015.6
20260902024504 61 266 2.0 3.0 0.00 0.00 0.00 58 1015.5
20260902024004 61 277 2.0 6.0 0.00 0.00 0.00 57 1015.5
20260902023504 62 276 1.0 3.0 0.00 0.00 0.00 57 1015.4
20260902022504 63 311 1.0 3.0 0.00 0.00 0.00 55 1015.4
20260902022004 63 311 1.0 3.0 0.00 0.00 0.00 54 1015.4
20260902021504 63 305 2.0 3.0 0.00 0.00 0.00 54 1015.3
20260902021003 64 312 1.0 3.0 0.00 0.00 0.00 53 1015.3
20260902020504 64 254 2.0 3.0 0.00 0.00 0.00 52 1015.2
20260902020004 65 262 3.0 8.0 0.00 0.00 0.00 52 1015.3
20260902015506 65 283 2.0 3.0 0.00 0.00 0.00 51 1015.2
20260902015004 65 253 2.0 7.0 0.00 0.00 0.00 51 1015.1
20260902014505 66 261 2.0 7.0 0.00 0.00 0.00 51 1015.2
20260902014005 66 305 2.0 8.0 0.00 0.00 0.00 50 1015.2
20260902012005 67 241 1.0 8.0 0.00 0.00 0.00 49 1015.1
20260902011504 67 324 3.0 7.0 0.00 0.00 0.00 48 1014.9
20260902011005 68 274 3.0 9.0 0.00 0.00 0.00 48 1014.9
20260902010506 68 327 3.0 7.0 0.00 0.00 0.00 48 1014.9
20260902010005 68 281 2.0 7.0 0.00 0.00 0.00 48 1015.1
20260902005505 68 273 2.0 6.0 0.00 0.00 0.00 48 1015.1
20260902005005 68 258 3.0 9.0 0.00 0.00 0.00 48 1015.2
20260902004505 68 230 3.0 8.0 0.00 0.00 0.00 48 1015.2
20260902003505 68 195 4.0 9.0 0.00 0.00 0.00 48 1015.0
20260902003005 68 219 5.0 10.0 0.00 0.00 0.00 47 1015.0
20260902002505 68 223 3.0 10.0 0.00 0.00 0.00 47 1015.2
20260902002006 69 247 4.0 8.0 0.00 0.00 0.00 48 1015.2
20260902001505 68 308 3.0 7.0 0.00 0.00 0.00 48 1015.3
20260902000505 68 193 3.0 8.0 0.00 0.00 0.00 48 1015.1
20260901235505 68 268 3.0 8.0 0.00 0.00 0.00 49 1015.2
20260901235006 68 212 3.0 10.0 0.00 0.00 0.00 49 1015.2
20260901234505 68 218 5.0 10.0 0.00 0.00 0.00 49 1015.3
20260901233504 68 291 3.0 9.0 0.00 0.00 0.00 49 1015.3
20260901233005 68 193 2.0 8.0 0.00 0.00 0.00 49 1015.3
20260901232505 68 238 4.0 9.0 0.00 0.00 0.00 49 1015.5
20260901232005 68 246 5.0 9.0 0.00 0.00 0.00 50 1015.4
20260901231505 68 214 3.0 7.0 0.00 0.00 0.00 50 1015.5
20260901225505 67 173 2.0 7.0 0.00 0.00 0.00 52 1015.4
20260901225005 66 204 3.0 7.0 0.00 0.00 0.00 53 1015.3
20260901224505 66 271 3.0 10.0 0.00 0.00 0.00 52 1015.4
20260901224005 67 252 3.0 7.0 0.00 0.00 0.00 52 1015.3
20260901223505 67 260 2.0 7.0 0.00 0.00 0.00 52 1015.3